Regional Weather Roundup
Issued by NWS

Home | Current Version | Previous Version | Text Only | Print | Product List | Glossary On
Versions: 1 2 3 4 5 6 7 8 9 10 11 12 13 14 15 16 17 18 19 20 21 22 23 24 25 26 27 28 29 30 31 32 33 34 35 36 37 38 39 40 41 42 43 44 45 46 47 48 49 50
000
ASUS44 KEWX 032003
RWRTX
SOUTH TEXAS REGIONAL WEATHER ROUNDUP
NATIONAL WEATHER SERVICE AUSTIN/SAN ANTONIO TX
200 PM CST SAT DEC 03 2016

NOTE: "FAIR" INDICATED FEW OR NO CLOUDS BELOW 12,000 FEET WITH NO
SIGNIFICANT WEATHER AND/OR OBSTRUCTIONS TO VISIBILITY.

* - THESE STATIONS ARE NOT NWS OR FAA STATIONS...AND ARE NOT SUBJECT
    TO NWS AND FAA QUALITY CONTROL.

TXZ171-172-183>190-032100-
TEXAS HILL COUNTRY AND EDWARDS PLATEAU

CITY           SKY/WX    TMP DP  RH WIND       PRES   REMARKS
JUNCTION       LGT RAIN  48  47  96 N6        29.96S WCI  45
*LLANO         LGT RAIN  50  50 100 CALM      29.98F
BURNET         LGT RAIN  49  47  93 NE7       29.96F WCI  46
*HORSESHOE BAY RAIN      50  49  97 N3        29.95R
*KERRVILLE     RAIN      49  47  95 N6        29.93R WCI  46
*FREDERICKSBRG DRIZZLE   48  46  93 NE6       29.94F WCI  46
*ROCKSPRINGS   RAIN      46  46 100 E10       29.92F WCI  41
*BOERNE STAGE  CLOUDY    46  46 100 N9        29.92R WCI  42
*CASTROVILLE   RAIN      52  51  98 NE9       29.89F
HONDO          CLOUDY    54  52  93 N15       29.90F
*UVALDE        LGT RAIN  56  55  95 CALM      29.90F
DEL RIO        CLOUDY    55  54  96 NE5       29.86F FOG
LAUGHLIN AFB   CLOUDY    55  50  84 E10       29.87F
CARRIZO SPRGS  LGT RAIN  54  54 100 N8        29.88F
*EAGLE PASS    MOCLDY    57  55  94 NE9       29.87F
$$

TXZ173-191>194-202-209-217>225-228-032100-
CENTRAL AND SOUTH CENTRAL TEXAS

CITY           SKY/WX    TMP DP  RH WIND       PRES   REMARKS
GEORGETOWN     LGT RAIN  52  46  82 N7        29.96F
AUSTIN/BERGSTM LGT RAIN  52  50  93 N14       29.92F FOG
AUSTIN/MABRY   LGT RAIN  51  50  96 N7        29.94F
*AUSTIN/EXEC   RAIN      50  50 100 N12       29.94F WCI  46
*LAGO VISTA    RAIN      50  49  97 NE9       29.92F WCI  46
SAN MARCOS     RAIN      54  48  82 N20       29.92F
NEW BRAUNFELS  LGT RAIN  52  49  89 N16       29.89F FOG
RANDOLPH AFB   HVY RAIN  51  51 100 NE10      29.89S FOG
PT SAN ANTONIO RAIN      52  50  93 N13       29.87F FOG
SAN ANTONIO    RAIN      51  49  92 N7        29.89F FOG
STINSON FIELD  HVY RAIN  54  50  86 N8        29.87F FOG
*PLEASANTON    RAIN      52  51  96 N10G16    29.88S
*LA GRANGE     DRIZZLE   53  52  95 N5        29.90R
*GIDDINGS      HVY RAIN  50  49  97 N8        29.96R WCI  47
*GONZALES      DRIZZLE   52  52 100 N7        29.89F
$$

TXZ163>164-176>182-195>201-210>213-226-227-235-032100-
SOUTHEAST TEXAS

CITY           SKY/WX    TMP DP  RH WIND       PRES   REMARKS
COLLEGE STN    CLOUDY    51  49  92 NE15G21   29.91F
*BRYAN         CLOUDY   N/A N/A N/A NE8       29.93
*CALDWELL      NOT AVBL
*CROCKETT      LGT RAIN  48  46  93 NE9       29.97F WCI  44
*BRENHAM       CLOUDY    53  51  94 NE7       29.90F
HUNTSVILLE     CLOUDY    50  47  89 NE5       29.92F WCI  48
CONROE         LGT RAIN  52  50  93 N7        29.90F
HOUSTON BUSH   CLOUDY    55  52  89 N9        29.88F
HOUSTON HOBBY  CLOUDY    57  54  89 NE8       29.87S
*HOUSTON SW AP CLOUDY    56  54  91 N6        29.87S
PEARLAND       LGT RAIN  58  55  90 N9        29.87F
HOUSTON HOOKS  LGT RAIN  53  51  93 N10       29.88F
ELLINGTON FLD  LGT RAIN  59  57  94 N7        29.88F
SUGAR LAND     CLOUDY    55  54  96 N10       29.88S
*HOUSTON EXEC  LGT RAIN  54  52  94 N12       29.88F
*CLEVELAND MUN CLOUDY    53  51  94 CALM      29.90F
*WHARTON       CLOUDY    54  53  94 N9        29.88S
*COLUMBUS      RAIN      53  51  94 N6        29.89F
*EAGLE LAKE    HVY RAIN  55  55  98 N9        29.89S
$$

TXZ214>216-236>238-032100-
THE UPPER TEXAS COAST

CITY           SKY/WX    TMP DP  RH WIND       PRES   REMARKS
*ORANGE        HVY RAIN N/A N/A N/A NE12      29.91F VSB 1
PORT ARTHUR    HVY RAIN  54  53  97 NE16      29.86F FOG
GALVESTON      LGT RAIN  61  60  97 N15       29.83F FOG
ANGLETON       RAIN      58  58 100 N5        29.86R FOG
*BAY CITY      CLOUDY    58  57  95 N8        29.85F
PALACIOS       LGT RAIN  57  54  89 N14       29.85S
$$

TXZ229>234-239>247-032100-
TEXAS COASTAL BEND AND RIO GRANDE PLAINS

CITY           SKY/WX    TMP DP  RH WIND       PRES   REMARKS
VICTORIA       CLOUDY    54  53  97 N10       29.86F
*BEEVILLE      CLOUDY    58  56  91 N10       29.83F
ROCKPORT         N/A    N/A N/A N/A MISG      29.83F
*PORT ARANSAS  CLOUDY    62  59  91 N16       29.81F
*PORT LAVACA   CLOUDY    56  55  96 N17G24    29.85F
*INGLESIDE     CLOUDY    62  57  82 NE16G24   29.82F
CORPUS CHRISTI CLOUDY    63  57  81 NE14      29.81F
CORPUS NAS     CLOUDY    63  60  90 N15       29.81F
*ROBSTOWN      CLOUDY    65  57  73 N13G18    29.81S
ALICE          CLOUDY    64  57  78 N10       29.81F
KINGSVILLE NAS MOSUNNY   72  61  68 N14       29.79F
COTULLA        LGT RAIN  56  53  90 N9        29.88S FOG
*FAITH RANCH   CLOUDY    55  55 100 NW7G14    29.90R
LAREDO         CLOUDY    58  57  97 N12       29.85F
$$

TXZ248>255-032100-
DEEP SOUTH TEXAS

CITY           SKY/WX    TMP DP  RH WIND       PRES   REMARKS
BROWNSVILLE    PTSUNNY   84  71  65 S21G29    29.74F
PORT ISABEL    MOSUNNY   83  71  67 S16G26    29.74F HAZE
*SOUTH PADRE     N/A     81  73  78 S14       29.76F
HARLINGEN      PTSUNNY   85  72  65 S18       29.73F HX  91
*HEBBRONVILLE  HVY RAIN  58  58  98 N10       29.81F
MCALLEN        CLOUDY    87  69  54 S9        29.73F HX  91
*WESLACO       PTSUNNY   85  71  63 S16G23    29.72F
FALFURRIAS     CLOUDY    71  62  73 N8        29.78S
EDINBURG       PTSUNNY   86  67  53 S13       29.73F
*ZAPATA        CLOUDY    60  60 100 NW12      29.82S FOG
$$

TXZ213>215-236>238-242>244-246-247-251-254-255-032100-
CMAN STATIONS

STATION/POSITION TIME  TEMP    WIND        PRES    WAVE
                       AIR SEA DIR/SP/G            HT/PER
                 (UTC) (F)     (DEG/KT/KT) (MB)    (FT/S)
SABINE PASS      1924      64   10/ 23/ 36 1012.3
SEA RIM ST PARK  1900          350/ 21/ 25 1012.0
NORTH JETTY/GLS  1924   59 64   10/ 17/ 19   N/A
EAGLE POINT      1924   56 62   30/ 11/ 15 1010.8
MORGANS POINT    1924   55 64   30/  7/ 14 1011.5
PORT O`CONNOR    1930   58     350/ 16/ 18 1010.1
PORT ARANSAS     1900   61 68  360/ 18/ 20 1009.5
MALAQUITE BEACH  1930   64 70   10/ 17/ 20 1009.4
BAFFIN BAY       1930   67 72   20/ 13/ 16 1008.6
PORT ISABEL      1930   81 76  160/ 15/ 22 1007.3
$$

GMZ080-GMZ150>470-032100-
OFFSHORE BUOY REPORTS

STATION/POSITION TIME  TEMP    WIND        PRES    WAVE
                       AIR SEA DIR/SP/G            HT/PER
                 (UTC) (F)     (DEG/KT/KT) (MB)    (FT/S)
20 E GALVESTON   1850   73 68  170/ 16/ 19 1009.5    7/ 8
90 E PT ARANSAS  1850   79 77  160/ 19/ 23 1009.3    9/ 8
35 NE PT MANSFLD 1850   76 74  180/  8/ 10 1008.2    8/ 8
200 E PT ISABEL  1850   80 80  160/ 19/ 23 1010.4    9/ 8
$$



USA.gov is the U.S. government's official web portal to all federal, state and local government web resources and services.